ATLAS 5 CENTAUR DEB, 57588

Orbit data source: Space-Track

ATLAS 5 CENTAUR DEB, 57588 is space debris in HEO originally from a launch on Wed, 17 Oct 2018 UTC launched from the Air Force Eastern Test Range (AFETR). Debris objects in space refer to the collection of defunct objects orbiting the Earth. Examples of debris include non-operational satellites, rocket bodies, and fragments generated from explosions, collisions, or faulty payload assembly.

Loading next visibility...
Identifier
57588, 2018-079HP
Orbit
HEO
Country
Flag of USUS
Related business
Flag of USUnited Launch Alliance/Lockheed Martin (US)
Manufacturer
ULA Decatur
Mission
Spacecraft
Bus & Motor
Unknown
Mass
Unknown
Launch date (UTC)
2018-10-17 (7 years ago)
Launch vehicle
Unknown
Launch site
Air Force Eastern Test Range (AFETR)
Object type
Payload
Rocket body
Debris
Shape & HBR
Unknown shape, 1.1 m
Radar Cross Section
RCS unknown

Expand to show TLE details & history
Last TLE update: 2 months ago

TLE from 2 months ago
0 ATLAS 5 CENTAUR DEB
1 57588U 18079HP  25285.16801462 -.00000173  00000-0  00000-0 0  9990
2 57588  12.8590  48.4721 4790995 308.8507  17.3534  1.88886955 17223
Epoch: 2025-10-12T04:01Z
TLE epoch observation values (Epoch: 2025-10-12T04:01:56.463Z)
Latitude
-0.0001°
Longitude
-33.0141°
Altitude
9,972.894 km
Speed
5.86 km/s
True Right ascension
03h 13m 50s
True Declination
0° 00' 00"
Sunlit
Object was in daylight at epoch
Visualization orbit readout
Latitude
Unknown
Longitude
Unknown
Altitude
Unknown
Speed
Unknown
Apparent Right ascension
Unknown
Apparent Declination
Unknown
Sunlit
N/A
Visualization observer readout
Local Sidereal Time
06:08:11
Azimuth
Unknown
Elevation
Unknown
Doppler factor
Unknown
Orbital elements
Apogee altitude
34,513.307 km
Perigee altitude
8,022.77 km
Semi-major axis
27,646.175 km
Eccentricity
0.4791
Inclination
12.859°
RAAN
48.4721°
Arg. of periapsis
308.8507°
True anomaly
51.32909°
Mean anomaly
17.3534°
Eccentric anomaly
31.83126°
Mean motion
0.47216 °/min
Orbital period
762.45 mins
BSTAR
0
Loading maneuver chart data...
Computing Atmospheric mass density...

Documentation

Showing up to 5 results
|